Terminal Aerodrome Forecast
Issued by NWS Billings, MT

Home | Current Version | Previous Version | Text Only | Print | Product List | Glossary On
Versions: 1 2 3 4 5 6 7 8 9 10 11 12 13 14 15 16 17 18
738
FTUS45 KBYZ 221123
TAFBIL
TAF
KBIL 221123Z 2212/2312 06008KT P6SM SCT150
     FM222100 08014KT P6SM VCSH SCT050 BKN150
     FM230200 04010KT P6SM FEW050 BKN150=

USA.gov is the U.S. government's official web portal to all federal, state and local government web resources and services.